This is the latest recevied weather packets stored in our database for station/object DM4XI-13. If no packets are shown the sender has not sent any weather packets the latest 10 day(s).
| Time | Temp. | Humidity | Pressure | Rain* | Wind** | Luminosity | Snow |
|---|---|---|---|---|---|---|---|
| 1778165962 | 12.78° C | 71% | 1011.9 hPa | 0 mm | 0.45 m/s, 256° | 125 W/m² | - |
| 1778165902 | 12.78° C | 70% | 1012 hPa | 0 mm | 3.13 m/s, 319° | 145 W/m² | - |
| 1778165840 | 13.33° C | 70% | 1012 hPa | 0 mm | 0.89 m/s, 303° | 155 W/m² | - |
| 1778165780 | 13.33° C | 69% | 1012.1 hPa | 0 mm | 2.68 m/s, 267° | 154 W/m² | - |
| 1778165719 | 13.33° C | 68% | 1011.9 hPa | 0 mm | 1.79 m/s, 324° | 148 W/m² | - |
| 1778165657 | 13.33° C | 68% | 1012 hPa | 0 mm | 1.34 m/s, 288° | 145 W/m² | - |
| 1778165597 | 13.33° C | 69% | 1012 hPa | 0 mm | 0.89 m/s, 301° | 142 W/m² | - |
| 1778165535 | 13.33° C | 68% | 1012 hPa | 0 mm | 0.89 m/s, 244° | 145 W/m² | - |
| 1778165474 | 13.33° C | 69% | 1011.8 hPa | 0 mm | 0.89 m/s, 287° | 146 W/m² | - |
| 1778165414 | 13.33° C | 69% | 1012 hPa | 0 mm | 0.45 m/s, 217° | 141 W/m² | - |
| 1778165352 | 13.33° C | 68% | 1012 hPa | 0 mm | 1.34 m/s, 308° | 136 W/m² | - |
| 1778165292 | 13.33° C | 69% | 1011.9 hPa | 0 mm | 1.34 m/s, 328° | 154 W/m² | - |
| 1778165231 | 13.33° C | 68% | 1012 hPa | 0 mm | 1.79 m/s, 287° | 191 W/m² | - |
| 1778165170 | 13.33° C | 69% | 1011.9 hPa | 0 mm | 0.89 m/s, 299° | 238 W/m² | - |
| 1778165108 | 13.33° C | 69% | 1012 hPa | 0 mm | 0.89 m/s, 328° | 237 W/m² | - |
| 1778165047 | 12.78° C | 70% | 1011.9 hPa | 0 mm | 1.79 m/s, 259° | 250 W/m² | - |
| 1778164986 | 12.78° C | 71% | 1012 hPa | 0 mm | 0.89 m/s, 321° | 274 W/m² | - |
| 1778164925 | 12.78° C | 72% | 1012.2 hPa | 0 mm | 0.89 m/s, 319° | 286 W/m² | - |
| 1778164864 | 12.78° C | 71% | 1011.8 hPa | 0 mm | 1.34 m/s, 303° | 268 W/m² | - |
| 1778164803 | 12.78° C | 71% | 1012.1 hPa | 0 mm | 2.68 m/s, 325° | 327 W/m² | - |
| 1778164742 | 12.78° C | 72% | 1012 hPa | 0 mm | 1.34 m/s, 319° | 211 W/m² | - |
| 1778164681 | 12.78° C | 73% | 1012.1 hPa | 0 mm | 2.24 m/s, 311° | 166 W/m² | - |
| 1778164620 | 12.78° C | 72% | 1012 hPa | 0 mm | 2.24 m/s, 291° | 141 W/m² | - |
| 1778164559 | 12.78° C | 72% | 1011.8 hPa | 0 mm | 0.89 m/s, 312° | 125 W/m² | - |
| 1778164498 | 12.78° C | 72% | 1012 hPa | 0 mm | 0.89 m/s, 256° | 118 W/m² | - |
* Rain latest hour (hover to see other rain measurements)
** Current wind speed in m/s (hover to see current wind gust speed)